#timestamp,LO_Frequency,Hit 
1501192815.4,286047009.0,N
1501192835.3,286047006.1,N
1501192855.1,286047005.2,N
1501192856.0,286047005.2,N
1501192875.8,286047005.0,N
1501192895.7,286047007.0,N
1501192915.5,286047006.4,N
1501192935.3,286047007.7,N
1501192955.1,286047009.4,N
1501192975.9,286047007.8,N
1501192995.7,286047009.0,N
1501193015.5,286047009.4,N
1501193035.4,286047008.5,N
1501193055.2,286047004.7,N
1501193075.0,286047004.1,N
1501193075.9,286047004.1,N
1501193095.8,286047004.8,N
1501193115.6,286047005.2,N
1501193135.4,286047001.4,N
1501193155.3,286047002.4,N
1501193175.1,286047002.6,N
1501193176.0,286047002.6,N
1501193195.8,286046999.7,N
1501193215.6,286047002.6,N
1501193235.5,286046998.1,N
1501193255.3,286047001.6,N
1501193275.1,286047004.1,N
1501193295.9,286047005.6,N
1501193315.7,286047007.4,N
1501193335.5,286047007.6,N
1501193355.4,286047008.7,N
1501193375.2,286047009.3,N
1501193395.0,286047011.0,N
1501193395.9,286047011.0,N
1501193415.8,286047013.1,N
1501193435.6,286047013.8,N
1501193455.4,286047012.2,N
1501193475.2,286047011.9,N
1501193495.1,286047013.4,N
1501193496.0,286047013.4,N
1501193515.8,286047014.2,N
1501193535.6,286047014.8,N
1501193555.5,286047015.4,N
1501193575.3,286047016.5,N
1501193595.1,286047014.5,N
1501193615.9,286047011.2,N
1501193635.7,286047014.1,N
1501193655.5,286047016.6,N
1501193675.4,286047016.9,N
1501193695.2,286047014.6,N
1501193715.0,286047016.2,N
1501193715.9,286047016.2,N
1501193735.8,286047018.5,N
1501193755.6,286047014.8,N
1501193775.4,286047015.4,N
1501193795.2,286047015.1,N
1501193815.1,286047015.6,N
1501193816.0,286047015.6,N
1501193835.8,286047011.4,N
1501193855.6,286047010.9,N
1501193875.5,286047013.0,N
1501193895.3,286047014.3,N
1501193915.1,286047011.2,N
1501193935.9,286047012.3,N
1501193955.7,286047012.0,N
1501193975.5,286047013.0,N
1501193995.4,286047015.2,N
1501194015.2,286047014.8,N
1501194035.0,286047016.8,N
1501194035.9,286047016.8,N
1501194055.8,286047013.3,N
1501194075.6,286047011.9,N
1501194095.4,286047009.4,N
1501194115.3,286047012.2,N
1501194135.1,286047012.8,N
1501194136.0,286047012.8,N
1501194155.8,286047014.4,N
1501194175.6,286047017.2,N
1501194195.5,286047017.0,N
1501194215.3,286047012.8,N
1501194235.1,286047014.2,N
1501194255.9,286047016.0,N
1501194275.7,286047014.4,N
1501194295.5,286047014.4,N
1501194315.4,286047012.5,N
1501194335.2,286047018.2,N
1501194355.0,286047021.4,Y
1501194355.9,286047021.4,Y
1501194375.8,286046997.0,N
1501194395.6,286046995.4,N
1501194415.4,286046998.0,N
1501194435.3,286046995.6,N
1501194455.1,286046995.7,N
1501194475.8,286046997.0,N
1501194495.7,286046996.5,N
1501194515.5,286046996.7,N
1501194535.3,286046997.1,N
1501194555.2,286046992.6,N
1501194575.9,286046989.8,N
1501194595.7,286046989.2,N
1501194615.5,286046992.6,N
1501194635.4,286046990.8,N
1501194655.2,286046990.0,N
1501194675.0,286046991.4,N
1501194675.9,286046991.4,N
1501194695.8,286046992.5,N
1501194715.6,286046994.2,N
1501194735.4,286046993.9,N
1501194755.3,286046996.3,N
1501194775.1,286046995.2,N
1501194776.0,286046995.2,N
1501194795.8,286046997.7,N
1501194815.7,286046995.7,N
1501194835.5,286046997.6,N
1501194855.3,286046998.5,N
1501194875.1,286047002.0,N
1501194895.9,286047003.9,N
1501194915.7,286047001.6,N
1501194935.5,286047003.5,N
1501194955.4,286047001.6,N
1501194975.2,286047002.1,N
1501194995.0,286047002.7,N
1501194995.9,286047002.7,N
1501195015.8,286047004.1,N
1501195035.6,286047005.8,N
1501195055.4,286047004.8,N
1501195075.3,286047003.9,N
1501195095.1,286047005.1,N
1501195096.0,286047005.1,N
1501195115.8,286047005.9,N
1501195135.6,286047004.5,N
1501195155.5,286047007.2,N
1501195175.3,286047006.7,N
1501195195.1,286047007.6,N
1501195215.9,286047004.9,N
1501195235.7,286047006.4,N
1501195255.5,286047006.3,N
1501195275.4,286047004.2,N
1501195295.2,286047001.4,N
1501195315.0,286047004.1,N
1501195315.9,286047004.1,N
1501195335.8,286047001.3,N
1501195355.6,286047003.3,N
1501195375.4,286047002.1,N
1501195395.2,286047004.1,N
1501195415.1,286047001.9,N
1501195416.0,286047001.9,N
1501195435.8,286047001.6,N
1501195455.6,286047002.9,N
1501195475.5,286047005.7,N
1501195495.3,286047003.7,N
1501195515.1,286047003.7,N
1501195535.9,286047003.7,N
1501195555.7,286047002.6,N
1501195575.5,286046998.2,N
1501195595.4,286046999.1,N
1501195615.2,286046996.6,N
1501195635.0,286046999.8,N
1501195635.9,286046999.8,N
1501195655.7,286047000.5,N
1501195675.6,286047000.2,N
1501195695.4,286047003.9,N
1501195715.2,286047003.8,N
1501195735.1,286047001.3,N
1501195736.0,286047001.3,N
1501195755.8,286047000.1,N
1501195775.6,286047000.7,N
1501195795.5,286047002.7,N
1501195815.3,286047000.0,N
1501195835.1,286047000.4,N
1501195855.9,286047002.4,N
1501195875.7,286047002.1,N
1501195895.5,286047001.9,N
1501195915.3,286047002.4,N
1501195935.2,286046998.2,N
1501195955.0,286046999.9,N
1501195955.9,286046999.9,N
1501195975.7,286047001.5,N
1501195995.6,286047001.3,N
1501196015.4,286047002.6,N
1501196035.2,286047004.3,N
1501196055.1,286047003.7,N
1501196056.0,286047003.7,N
1501196075.8,286047005.9,N
1501196095.6,286047002.3,N
1501196115.5,286047000.2,N
1501196135.3,286047000.1,N
1501196155.1,286046999.1,N
1501196175.8,286046998.4,N
1501196195.7,286046998.5,N
1501196215.5,286047000.2,N
1501196235.3,286046998.9,N
1501196255.2,286046998.3,N
1501196275.9,286047000.9,N
1501196295.7,286046999.2,N
1501196315.6,286046997.2,N
1501196335.4,286046999.7,N
1501196355.2,286047002.4,N
1501196375.0,286047002.4,N
1501196376.0,286047002.4,N
1501196395.8,286046998.6,N
